Location: Columbia, SC
(34.0000°N, 81.0300°W)
Time: 01:18:40
(UTC-04:00)

Tiangong 1 - Visible Passes

Search period start: 28 April 2015 00:00
Search period end: 08 May 2015 00:00
Orbit: 382 x 397 km, 42.8° (Epoch: 27 April)

Date Brightness Start Highest point End Pass type
(mag) Time Alt. Az. Time Alt. Az. Time Alt. Az.
28 Apr 2.5 05:17:37 23° WNW 05:18:45 29° NNW 05:21:35 10° NE visible
29 Apr 3.4 04:22:13 25° NE 04:22:13 25° NE 04:23:48 10° NE visible
29 Apr 3.5 05:55:51 10° NW 05:58:06 18° N 06:00:20 10° NE visible
30 Apr 3.1 04:59:03 19° NW 04:59:56 21° NNW 05:02:25 10° NE visible
01 May 4.1 04:03:31 17° NNE 04:03:31 17° NNE 04:04:32 10° NE visible
01 May 3.7 05:37:08 10° NW 05:39:13 16° N 05:41:19 10° NE visible
02 May 3.5 04:40:15 16° NNW 04:40:55 17° N 04:43:07 10° NE visible
03 May 4.6 03:44:39 12° NE 03:44:39 12° NE 03:45:02 10° NE visible
03 May 3.7 05:17:57 10° NW 05:20:08 17° N 05:22:20 10° NE visible
04 May 3.7 04:21:20 16° N 04:21:43 16° N 04:23:48 10° NE visible
04 May 3.1 05:56:27 10° NW 05:59:11 27° NNE 06:01:57 10° ENE visible
05 May 3.6 04:58:20 10° NW 05:00:47 20° NNE 05:03:15 10° ENE visible
06 May 3.9 04:02:33 17° NNE 04:02:33 17° NNE 04:04:29 10° NE visible
06 May 2.3 05:36:35 10° NW 05:39:37 43° NNE 05:42:38 10° E visible
07 May 3.1 04:39:30 18° NNW 04:41:09 28° NNE 04:43:57 10° E visible
